Location: MAS Eagle Lake Observatory
(44.8103°N, 93.9397°W)
Time: 15:51:55
(UTC-06:00)

Tiangong 1 - Visible Passes

Search period start: 15 December 2017 00:00
Search period end: 25 December 2017 00:00
Orbit: 275 x 301 km, 42.8° (Epoch: 15 December)

Date Brightness Start Highest point End Pass type
(mag) Time Alt. Az. Time Alt. Az. Time Alt. Az.
20 Dec 3.5 06:14:25 10° S 06:15:52 14° SSE 06:17:20 10° ESE visible
21 Dec 2.8 06:17:41 13° SSW 06:19:15 22° SSE 06:21:18 10° ESE visible
22 Dec 2.1 06:21:23 20° SW 06:22:34 31° SSE 06:24:52 10° E visible
23 Dec 1.4 06:24:49 26° SW 06:25:49 42° S 06:28:14 10° E visible
24 Dec 1.1 06:28:01 29° WSW 06:28:58 50° S 06:31:25 10° E visible
